Hourly Data Report for October 18, 2019

QUALICUM BEACH AIRPORT
BRITISH COLUMBIA
Current Station Operator: ECCC - MSC

49°20'14.000" N
124°23'38.000" W
58.20 m
1026562
71766
VOQ

Download Data

Hourly Data (October 2019)
Hourly Data Report for October 18, 2019
TIME
LST
Temp Definition
°C
Dew Point Definition
°C
Rel Hum Definition
%
Precip. Amount Definition
mm

Wind Dir Definition
10's deg

Wind Spd Definition
km/h
Visibility Definition
km
Stn Press Definition
kPa
Hmdx Definition


Wind Chill Definition


Weather Definition


00:00 10.6 4.6 66 0.0 24 7   99.64     LegendNANA
01:00 10.6 4.2 65 0.0 27 5   99.79     LegendNANA
02:00 10.4 4.0 64 0.0 31 11   99.90     LegendNANA
03:00 7.8 4.4 79 0.0 17 7   99.94     LegendNANA
04:00 8.2 4.3 76 0.0 35 5   99.97     LegendNANA
05:00 7.3 5.4 88 0.0 21 6   100.01     LegendNANA
06:00 7.5 5.7 88 0.0 17 6   100.02     LegendNANA
07:00 7.3 6.2 93 0.4 15 5   100.02     LegendNANA
08:00 7.8 6.7 92 0.2 24 3   100.03     LegendNANA
09:00 9.0 7.0 88 0.1 17 7   100.08     LegendNANA
10:00 9.9 8.4 90 0.3 8 2   100.10     LegendNANA
11:00 10.7 8.4 85 0.0 6 2   100.13     LegendNANA
12:00 11.3 6.9 74 0.0 9 5   100.13     LegendNANA
13:00 12.3 6.8 69 0.0 10 3   100.12     LegendNANA
14:00 12.0 7.1 72 0.0 12 4   100.10     LegendNANA
15:00 11.2 7.5 78 0.0 6 5   100.11     LegendNANA
16:00 10.7 8.4 85 0.0 5 3   100.14     LegendNANA
17:00 10.0 8.7 91 0.0 3 2   100.10     LegendNANA
18:00 8.5 7.5 94 0.0 22 4   100.08     LegendNANA
19:00 7.5 6.8 96 0.0 14 4   100.05     LegendNANA
20:00 6.5 5.9 96 0.0 23 2   100.00     LegendNANA
21:00 6.3 5.8 97 0.0 22 4   99.98     LegendNANA
22:00 7.0 6.0 94 0.0 16 2   99.93     LegendNANA
23:00 7.1 6.0 93 0.0 13 2   99.87     LegendNANA

Notes on Data Quality.

Legend

  • E = Estimated
  • M = Missing
  • NA = Not Available*
  • [empty] = Indicates an unobserved value
Date modified: